[[{"header":{"parameterUnit":"m.s-1","parameterCategory":1,"la1":30.2991,"la2":30.254,"lo1":-89.0895,"lo2":-89.0444,"dy":0.0017,"dx":0.0017,"nx":28,"ny":28,"refTime":"2024-05-10T03:00:00:Z","depth":0,"parameterNumber":2,"parameterNumberName":"U-component_of_WINDS"},"data":[0,0,0,0,0,0,0,0,0,0,0,0,0,0,0,0,0,0,0,0,0,0,0,0,0,0,0,0,0,0,0,0,0,0,0,0,0,0,0,0,0,0,0,0,0,0,0,0,0,0,0,0,0,0,0,0,0,0,-3.3806,-3.3806,0,-3.3843,-3.3843,-3.3844,-3.3728,-3.3725,-3.3721,-3.3718,-3.3757,-3.3761,-3.3766,0,0,0,0,0,0,0,0,0,0,0,0,0,-3.3635,-3.3639,-3.3806,-3.3806,-3.3807,-3.3843,-3.3843,-3.3844,-3.3729,-3.3724,-3.372,-3.3716,-3.3756,-3.3761,-3.3766,0,0,0,0,0,0,0,0,0,0,0,0,0,-3.3695,-3.364,-3.3806,-3.3754,-3.3749,-3.3843,-3.3843,-3.3844,-3.373,-3.3724,-3.3719,-3.3714,-3.3754,-3.376,-3.3767,-3.3912,0,0,-3.3786,-3.3789,0,0,0,0,0,0,0,0,-3.3692,-3.3701,-3.3761,-3.3757,-3.3753,-3.3775,-3.3797,-3.3867,-3.3731,-3.3737,-3.3718,-3.3711,-3.3768,-3.3773,-3.3791,-3.3914,-3.3916,-3.3787,-3.3791,-3.3794,-3.3796,0,0,0,0,0,0,0,-3.3688,-3.3699,-3.382,-3.3762,-3.3757,-3.3728,-3.3731,-3.381,-3.3782,-3.3736,-3.3728,-3.3734,-3.3764,-3.3785,-3.3791,-3.3917,-3.3787,-3.3793,-3.3797,-3.3799,-3.4161,-3.4166,0,0,0,0,0,0,-3.369,-3.3696,-3.3819,-3.3821,-3.3708,-3.3736,-3.3739,-3.3773,-3.378,-3.3776,-3.3738,-3.3728,-3.3777,-3.3784,-3.3792,-3.3964,-3.3794,-3.38,-3.3804,-3.4155,-3.4162,-3.4168,0,0,0,0,0,0,-3.3687,-3.3702,-3.3818,-3.3757,-3.3769,-3.3744,-3.3784,-3.3777,-3.3798,-3.3782,-3.3776,-3.3765,-3.3773,-3.3783,-3.3883,-3.3963,-3.3803,-3.3809,-3.4148,-3.4157,-3.4165,-3.4308,0,0,0,0,0,0,-3.3683,-3.3702,-3.3757,-3.3759,-3.3773,-3.3909,-3.3789,-3.3781,-3.3809,-3.3796,-3.3805,-3.3802,-3.3769,-3.3874,-3.389,-3.3969,-3.3814,-3.4141,-3.4152,-3.4162,-3.4296,-3.432,-3.4341,0,0,0,0,0,-3.3677,-3.3796,-3.3761,-3.3776,-3.3841,-3.3913,-3.3921,-3.3881,-3.3816,-3.3871,-3.3861,-3.3802,-3.3952,-3.3885,-3.3902,-3.3985,-3.4136,-3.4149,-3.4161,-3.4286,-3.4316,-3.4341,0,0,0,0,0,0,-3.3805,-3.3796,-3.3756,-3.3879,-3.3898,-3.3894,-3.3963,-3.3914,-3.3952,-3.3939,-3.3888,-3.3891,-3.4001,-3.4002,-3.3928,-3.4126,-3.4032,-3.4049,-3.4121,-3.4149,-3.4172,-3.417,-3.3819,0,0,0,0,0,-3.3848,-3.3907,-3.3895,-3.4005,-3.4016,-3.3988,-3.4018,-3.3985,-3.4003,-3.4011,-3.4007,-3.4027,-3.4078,-3.4114,-3.416,-3.4295,-3.4295,-3.436,-3.4382,-3.4401,-3.4417,-3.4488,-3.4517,-3.421,-3.421,-3.421,0,0,-3.3937,-3.3939,-3.3979,-3.4031,-3.4042,-3.4104,-3.3996,-3.4067,-3.4113,-3.4021,-3.4116,-3.4114,-3.4133,-3.4251,-3.4303,-3.4256,-3.4501,-3.4417,-3.4432,-3.4438,-3.4504,-3.4534,-3.4559,-3.4219,-3.4217,-3.4216,0,0,-3.4131,-3.4138,-3.4231,-3.4243,-3.4261,-3.4241,-3.4263,-3.4266,-3.4261,-3.4355,-3.4288,-3.4341,-3.4431,-3.4447,-3.4467,-3.4666,-3.4613,-3.4682,-3.4801,-3.4871,-3.4896,-3.4917,-3.4989,-3.5015,-3.4697,-3.4698,-3.4698,0,-3.424,-3.4331,-3.4284,-3.436,-3.4385,-3.4304,-3.4397,-3.4412,-3.4444,-3.4463,-3.4409,-3.4519,-3.4526,-3.4647,-3.4696,-3.4714,-3.4738,-3.4682,-3.4896,-3.4917,-3.4936,-3.5004,-3.5031,-3.4706,-3.4705,-3.4704,-3.4704,0,-3.4464,-3.4529,-3.4601,-3.4634,-3.4666,-3.4751,-3.4717,-3.4755,-3.4719,-3.4705,-3.4801,-3.4806,-3.4852,-3.4878,-3.4844,-3.4994,-3.4965,-3.4904,-3.481,-3.4974,-3.5037,-3.5063,-3.4718,-3.4715,-3.4713,-3.4711,0,0,-3.4743,-3.4747,-3.4775,-3.4789,-3.4801,-3.485,-3.493,-3.4974,-3.5009,-3.5033,-3.5099,-3.5176,-3.512,-3.5143,-3.5109,-3.5171,-3.5329,-3.5103,-3.5102,-3.5146,-3.5496,-3.5543,-3.5574,-3.5293,-3.5298,-3.5301,-3.5495,0,-3.4935,-3.5073,-3.5032,-3.517,-3.523,-3.5152,-3.5222,-3.5237,-3.5226,-3.5274,-3.5261,-3.5317,-3.5238,-3.5251,-3.5309,-3.5298,-3.5399,-3.5283,-3.5355,-3.5358,-3.5355,-3.5606,-3.5656,-3.5839,-3.5519,-3.5523,-3.5526,0,-3.5179,-3.5212,-3.5356,-3.5358,-3.5381,-3.5445,-3.5482,-3.5529,-3.5544,-3.5531,-3.5556,-3.551,-3.5588,-3.5492,-3.56,-3.5522,-3.5549,-3.5548,-3.5554,-3.556,-3.5454,-3.5622,-3.5896,-3.5924,-3.5564,-3.5561,-3.5559,0,-3.5369,-3.545,-3.5546,-3.556,-3.5565,-3.5611,-3.5615,-3.5625,-3.5654,-3.5686,-3.5705,-3.5746,-3.5769,-3.5802,-3.5768,-3.57,-3.5881,-3.5782,-3.5874,-3.5875,-3.5917,-3.5915,-3.6201,-3.5932,-3.5931,-3.5931,-3.593,0,-3.5589,-3.5681,-3.5632,-3.5692,-3.5792,-3.5744,-3.5844,-3.5839,-3.5849,-3.5906,-3.5841,-3.5897,-3.5847,-3.5898,-3.5871,-3.5965,-3.5976,-3.5968,-3.596,-3.5975,-3.5976,-3.5993,-3.5981,-3.5938,-3.5936,-3.5935,-3.5934,0,-3.582,-3.5791,-3.5891,-3.5887,-3.5888,-3.5962,-3.5958,-3.6013,-3.5995,-3.6069,-3.6084,-3.6057,-3.6114,-3.6082,-3.614,-3.6122,-3.6244,-3.6218,-3.624,-3.6233,-3.6327,-3.632,-3.6636,-3.6675,-3.6379,-3.6382,-3.6384,0,-3.5964,-3.6032,-3.6035,-3.6068,-3.6076,-3.6131,-3.616,-3.6115,-3.6148,-3.617,-3.6223,-3.6273,-3.6311,-3.6405,-3.6391,-3.6435,-3.6411,-3.6518,-3.6417,-3.643,-3.6414,-3.6411,-3.6418,-3.654,-3.6543,-3.6546,-3.6548,0,-3.6222,-3.6203,-3.6248,-3.6287,-3.6324,-3.6353,-3.6376,-3.6407,-3.6362,-3.6402,-3.6459,-3.6488,-3.6547,-3.6598,-3.6636,-3.6639,-3.6588,-3.658,-3.6604,-3.662,-3.663,-3.6628,-3.6297,-3.6573,-3.6571,-3.6569,-3.6568,-3.6567,-3.6414,-3.6471,-3.6482,-3.6533,-3.6546,-3.6569,-3.6621,-3.6609,-3.6656,-3.67,-3.667,-3.6737,-3.6749,-3.6794,-3.6804,-3.6856,-3.6813,-3.6847,-3.6856,-3.6866,-3.6879,-3.6621,-3.6862,-3.6862,-3.6861,-3.686,-3.686,0,-3.667,-3.6672,-3.672,-3.6755,-3.6795,-3.674,-3.6763,-3.6801,-3.6861,-3.6876,-3.6915,-3.698,-3.7029,-3.7018,-3.7063,-3.7106,-3.7083,-3.712,-3.7117,-3.7119,-3.6915,-3.689,-3.7137,-3.7137,-3.7137,-3.7137,-3.7137,-3.7137,-3.6808,-3.6902,-3.6885,-3.6985,-3.6986,-3.7051,-3.7069,-3.709,-3.7102,-3.7178,-3.7218,-3.721,-3.7216,-3.7259,-3.7302,-3.7297,-3.7318,-3.7363,-3.735,-3.716,-3.7133,-3.7107,-3.7084,-3.7367,-3.7368,-3.755,-3.7552,-3.7553]},{"header":{"parameterUnit":"m.s-1","parameterCategory":1,"la1":30.2991,"la2":30.254,"lo1":-89.0895,"lo2":-89.0444,"dy":0.0017,"dx":0.0017,"nx":28,"ny":28,"refTime":"2024-05-10T03:00:00:Z","depth":0,"parameterNumber":3,"parameterNumberName":"V-component_of_WINDS"},"data":[0,0,0,0,0,0,0,0,0,0,0,0,0,0,0,0,0,0,0,0,0,0,0,0,0,0,0,0,0,0,0,0,0,0,0,0,0,0,0,0,0,0,0,0,0,0,0,0,0,0,0,0,0,0,0,0,0,0,-5.9651,-5.9652,0,-5.9697,-5.9697,-5.9698,-5.9599,-5.9596,-5.9593,-5.959,-5.9632,-5.9636,-5.964,0,0,0,0,0,0,0,0,0,0,0,0,0,-5.9474,-5.9477,-5.9651,-5.9652,-5.9653,-5.9697,-5.9697,-5.9698,-5.9599,-5.9596,-5.9592,-5.9588,-5.9631,-5.9635,-5.964,0,0,0,0,0,0,0,0,0,0,0,0,0,-5.9538,-5.9479,-5.9651,-5.9609,-5.9605,-5.9697,-5.9697,-5.9698,-5.96,-5.9596,-5.9591,-5.9586,-5.9629,-5.9635,-5.9641,-5.9774,0,0,-5.966,-5.9662,0,0,0,0,0,0,0,0,-5.9535,-5.9545,-5.9614,-5.9612,-5.9608,-5.9637,-5.965,-5.9724,-5.9601,-5.9602,-5.9589,-5.9584,-5.9637,-5.9642,-5.9661,-5.9776,-5.9778,-5.966,-5.9664,-5.9667,-5.9668,0,0,0,0,0,0,0,-5.953,-5.9542,-5.9669,-5.9616,-5.9612,-5.9586,-5.959,-5.9664,-5.9646,-5.9602,-5.9595,-5.9602,-5.9635,-5.9656,-5.9662,-5.9779,-5.966,-5.9665,-5.9669,-5.9672,-6.0003,-6.0008,0,0,0,0,0,0,-5.9532,-5.9539,-5.9668,-5.9671,-5.9559,-5.9593,-5.9597,-5.9633,-5.9645,-5.9642,-5.9606,-5.9597,-5.9647,-5.9654,-5.9663,-5.9818,-5.9666,-5.9672,-5.9676,-5.9998,-6.0004,-6.001,0,0,0,0,0,0,-5.9528,-5.9544,-5.9666,-5.9603,-5.9616,-5.9601,-5.9642,-5.9636,-5.9657,-5.9648,-5.9644,-5.9631,-5.9644,-5.9654,-5.9747,-5.9818,-5.9675,-5.9681,-5.9992,-6.0,-6.0007,-6.0132,0,0,0,0,0,0,-5.9524,-5.9544,-5.9596,-5.9605,-5.962,-5.9752,-5.9646,-5.9641,-5.9669,-5.9657,-5.967,-5.9668,-5.9641,-5.9738,-5.9753,-5.9824,-5.9685,-5.9985,-5.9995,-6.0004,-6.0121,-6.0143,-6.0161,0,0,0,0,0,-5.9518,-5.9628,-5.9599,-5.9615,-5.9685,-5.9756,-5.9764,-5.9733,-5.9675,-5.9726,-5.9719,-5.9667,-5.9808,-5.9749,-5.9765,-5.9839,-5.9981,-5.9993,-6.0004,-6.0112,-6.0138,-6.0161,0,0,0,0,0,0,-5.9626,-5.9629,-5.9596,-5.9713,-5.9735,-5.9739,-5.9803,-5.9762,-5.98,-5.9788,-5.9745,-5.9749,-5.985,-5.9853,-5.9787,-5.9967,-5.9884,-5.99,-5.9961,-5.9986,-6.0006,-6.0003,-5.969,0,0,0,0,0,-5.9664,-5.9723,-5.9721,-5.9825,-5.9838,-5.9819,-5.9848,-5.9822,-5.9843,-5.9851,-5.9851,-5.9872,-5.9921,-5.9954,-5.9998,-6.0121,-6.0121,-6.018,-6.02,-6.0216,-6.023,-6.0293,-6.0319,-6.0048,-6.0047,-6.0047,0,0,-5.9742,-5.9751,-5.9791,-5.9847,-5.9861,-5.9921,-5.9827,-5.9895,-5.9939,-5.9861,-5.9949,-5.995,-5.997,-6.0078,-6.0126,-6.0084,-6.0304,-6.0231,-6.0244,-6.0248,-6.0308,-6.0333,-6.0356,-6.0055,-6.0054,-6.0053,0,0,-5.9916,-5.9929,-6.0016,-6.0032,-6.0055,-6.0041,-6.0062,-6.0073,-6.0071,-6.0159,-6.0101,-6.0151,-6.0237,-6.0253,-6.0272,-6.0451,-6.0404,-6.0466,-6.0571,-6.0634,-6.0655,-6.0673,-6.0736,-6.0759,-6.048,-6.048,-6.0481,0,-6.001,-6.01,-6.0066,-6.0138,-6.0163,-6.0097,-6.0183,-6.02,-6.0236,-6.0254,-6.0207,-6.0312,-6.0321,-6.0431,-6.0475,-6.0493,-6.0515,-6.0465,-6.0655,-6.0673,-6.069,-6.0749,-6.0773,-6.0488,-6.0487,-6.0486,-6.0485,0,-6.0214,-6.0277,-6.0344,-6.0382,-6.0415,-6.0494,-6.047,-6.0507,-6.0478,-6.0468,-6.0558,-6.0566,-6.061,-6.0635,-6.0606,-6.0741,-6.0714,-6.0662,-6.0578,-6.0724,-6.0779,-6.0801,-6.0498,-6.0496,-6.0493,-6.0492,0,0,-6.0457,-6.0474,-6.0499,-6.0515,-6.0535,-6.0582,-6.0657,-6.0702,-6.0734,-6.076,-6.0821,-6.0895,-6.0846,-6.0868,-6.0841,-6.0896,-6.1036,-6.0836,-6.0836,-6.0872,-6.1183,-6.1222,-6.1249,-6.1005,-6.1009,-6.1012,-6.1181,0,-6.0628,-6.0759,-6.0729,-6.0858,-6.0914,-6.0851,-6.0916,-6.0935,-6.0928,-6.0974,-6.0965,-6.1018,-6.095,-6.0963,-6.1015,-6.1008,-6.1097,-6.0995,-6.1059,-6.1062,-6.1056,-6.1277,-6.1319,-6.1478,-6.1202,-6.1206,-6.1208,0,-6.0845,-6.0881,-6.1015,-6.1025,-6.1047,-6.1107,-6.1144,-6.119,-6.1208,-6.1199,-6.1224,-6.1186,-6.1258,-6.1174,-6.1272,-6.1203,-6.1227,-6.1228,-6.1233,-6.1237,-6.1144,-6.1286,-6.1527,-6.1551,-6.1242,-6.1239,-6.1237,0,-6.1007,-6.1089,-6.118,-6.1195,-6.1209,-6.1252,-6.1259,-6.1273,-6.1301,-6.1334,-6.1351,-6.1392,-6.1414,-6.1445,-6.1418,-6.1359,-6.152,-6.1433,-6.1513,-6.1514,-6.1549,-6.1547,-6.1796,-6.1566,-6.1566,-6.1565,-6.1565,0,-6.1201,-6.1285,-6.1253,-6.1309,-6.14,-6.1365,-6.1456,-6.1456,-6.1469,-6.1522,-6.147,-6.152,-6.1482,-6.1528,-6.1507,-6.1591,-6.1601,-6.1595,-6.1588,-6.1599,-6.16,-6.1614,-6.1602,-6.1572,-6.157,-6.1569,-6.1568,0,-6.1398,-6.138,-6.1474,-6.148,-6.1483,-6.155,-6.1554,-6.1604,-6.1594,-6.1661,-6.1675,-6.1658,-6.171,-6.1686,-6.1741,-6.1726,-6.1834,-6.1813,-6.1828,-6.1822,-6.1903,-6.1895,-6.2169,-6.2203,-6.1952,-6.1955,-6.1957,0,-6.1522,-6.1586,-6.1598,-6.163,-6.1642,-6.1695,-6.1723,-6.169,-6.1722,-6.1748,-6.1795,-6.1843,-6.188,-6.1966,-6.1957,-6.1998,-6.1977,-6.207,-6.1982,-6.1991,-6.1977,-6.1973,-6.1979,-6.2087,-6.209,-6.2093,-6.2095,0,-6.1744,-6.1732,-6.1776,-6.1818,-6.1854,-6.1884,-6.191,-6.1939,-6.1907,-6.1945,-6.1998,-6.2027,-6.2083,-6.213,-6.2166,-6.2171,-6.2128,-6.2122,-6.2143,-6.2154,-6.216,-6.2157,-6.1875,-6.2116,-6.2114,-6.2112,-6.2111,-6.211,-6.1907,-6.1961,-6.1978,-6.2028,-6.2044,-6.2069,-6.2117,-6.2113,-6.2157,-6.2201,-6.2178,-6.224,-6.2255,-6.2299,-6.231,-6.2357,-6.232,-6.235,-6.2357,-6.2365,-6.2375,-6.2154,-6.2364,-6.2363,-6.2362,-6.2362,-6.2361,0,-6.2126,-6.2134,-6.2181,-6.2219,-6.2258,-6.2215,-6.2241,-6.2276,-6.2332,-6.235,-6.2388,-6.2448,-6.2494,-6.2489,-6.2531,-6.2569,-6.255,-6.2581,-6.2577,-6.2579,-6.2406,-6.2384,-6.2596,-6.2596,-6.2596,-6.2596,-6.2596,-6.2596,-6.2244,-6.2331,-6.2321,-6.2415,-6.2421,-6.2482,-6.2501,-6.2523,-6.2538,-6.2608,-6.2647,-6.2643,-6.2652,-6.2694,-6.2733,-6.273,-6.2747,-6.2786,-6.2776,-6.2615,-6.2591,-6.2569,-6.2548,-6.279,-6.2791,-6.2944,-6.2946,-6.2947]}]]